Bakersfield, CA

6:27 AM PST on February 25, 2017 (GMT -0800)
Meadows

Weather History for KBFL - September, 2012

Change the Weather History Date:

Thursday, September 20, 2012

  Actual Average Record
Temperature  
Mean Temperature 77 °F 76 °F  
Max Temperature 90 °F 89 °F 104 °F (1899)
Min Temperature 64 °F 63 °F 38 °F (1908)
Degree Days  
Heating Degree Days 0    
Month to date heating degree days 0  
Since 1 July heating degree days 0  
Cooling Degree Days 12    
Month to date cooling degree days 336  
Year to date cooling degree days 2276  
Growing Degree Days 27 (Base 50)    
Moisture  
Dew Point 48 °F    
Average Humidity 38    
Maximum Humidity 53    
Minimum Humidity 23    
Precipitation  
Precipitation 0.00 in 0.00 in 0.16 in (1939)
Month to date precipitation T 0.04  
Year to date precipitation 3.64 4.47  
Since 1 July precipitation 0.02  
Snow  
Snow 0.00 in - - ()
Month to date snowfall 0.0  
Since 1 July snowfall 0.0  
Since 1 September snowfall 0.0  
Snow Depth 0.00 in    
Sea Level Pressure  
Sea Level Pressure 29.95 in    
Wind  
Wind Speed 4 mph (NW)    
Max Wind Speed 13 mph    
Max Gust Speed 15 mph    
Visibility 10 miles    
Events      
T = Trace of Precipitation, MM = Missing Value Source: NWS Daily Summary

Daily Weather History Graph

Daily Weather History Graph

Search for Another Location

Airport or City:

Trip Planner

Search our weather history database for the weather conditions in past years. The results will help you decide how hot, cold, wet, or windy it might be!

Date:

Astronomy

Sep. 20, 2012 Rise Set
Actual Time 6:43 AM PDT 6:55 PM PDT
Civil Twilight 6:17 AM PDT 7:20 PM PDT
Nautical Twilight 5:48 AM PDT 7:50 PM PDT
Astronomical Twilight 5:17 AM PDT 8:20 PM PDT
Moon 11:54 AM PDT (9/20) 10:14 PM PDT (9/20)
Length of Visible Light 13h 02m
Length of Day
12h 11m
Waxing Crescent, 28% of the Moon is Illuminated
Sep 20
Waxing Crescent
Sep 22
First Quarter
Sep 29
Full
Oct 8
Last Quarter
Oct 15
New

Hourly Weather History & Observations

Time (PDT) Temp. Dew Point Humidity Pressure Visibility Wind Dir Wind Speed Gust Speed Precip Events Conditions
12:54 AM 71.1 °F 45.0 °F 39% 29.98 in 10.0 mi East 3.5 mph - N/A   Clear
1:54 AM 70.0 °F 44.1 °F 39% 29.99 in 10.0 mi Calm Calm - N/A   Clear
2:54 AM 69.8 °F 48.2 °F 46% 29.99 in 10.0 mi Calm Calm - N/A   Clear
3:54 AM 66.0 °F 46.9 °F 50% 29.97 in 10.0 mi Calm Calm - N/A   Clear
4:54 AM 68.0 °F 50.0 °F 52% 29.97 in 10.0 mi Calm Calm - N/A   Clear
5:54 AM 66.2 °F 48.2 °F 52% 29.98 in 10.0 mi Calm Calm - N/A   Clear
6:54 AM 66.9 °F 48.9 °F 52% 29.98 in 10.0 mi East 3.5 mph - N/A   Clear
7:54 AM 68.0 °F 50.0 °F 52% 29.99 in 8.0 mi ESE 3.5 mph - N/A   Clear
8:54 AM 70.0 °F 50.0 °F 49% 30.01 in 8.0 mi Calm Calm - N/A   Clear
9:54 AM 75.0 °F 50.0 °F 41% 30.01 in 8.0 mi SSW 3.5 mph - N/A   Clear
10:54 AM 78.1 °F 48.0 °F 35% 30.00 in 10.0 mi West 5.8 mph - N/A   Clear
11:54 AM 81.0 °F 46.9 °F 30% 29.98 in 10.0 mi WSW 5.8 mph - N/A   Clear
12:54 PM 84.2 °F 51.8 °F 33% 29.98 in 10.0 mi Variable 5.8 mph - N/A   Clear
1:54 PM 86.0 °F 48.0 °F 27% 29.93 in 10.0 mi WNW 4.6 mph - N/A   Clear
2:54 PM 90.0 °F 48.9 °F 24% 29.91 in 10.0 mi WNW 10.4 mph - N/A   Clear
3:54 PM 90.0 °F 48.0 °F 24% 29.89 in 10.0 mi WNW 10.4 mph - N/A   Clear
4:54 PM 90.0 °F 46.0 °F 22% 29.88 in 10.0 mi NW 6.9 mph - N/A   Clear
5:54 PM 89.1 °F 48.0 °F 24% 29.88 in 10.0 mi NW 5.8 mph - N/A   Clear
6:54 PM 86.0 °F 48.0 °F 27% 29.89 in 10.0 mi WNW 4.6 mph - N/A   Clear
7:54 PM 82.9 °F 50.0 °F 32% 29.91 in 10.0 mi NNE 3.5 mph - N/A   Clear
8:54 PM 78.1 °F 46.9 °F 33% 29.92 in 10.0 mi NE 4.6 mph - N/A   Clear
9:54 PM 78.1 °F 46.9 °F 33% 29.93 in 10.0 mi ENE 4.6 mph - N/A   Clear
10:54 PM 79.0 °F 48.9 °F 35% 29.94 in 10.0 mi Calm Calm - N/A   Clear
11:54 PM 75.9 °F 50.0 °F 40% 29.94 in 10.0 mi SE 3.5 mph - N/A   Clear